Location: Blairvadach
(56.2780°N, 6.9720°W)
Time: 05:03:38
(UTC+00:00)

Envisat - Pass Details

Date: 20 November 2019
Orbit: 764 x 766 km, 98.1° (Epoch: 14 December)

Event Time Altitude Azimuth Distance (km) Brightness Sun altitude
Rises 16:43:00 0° 123° (ESE) 3,230 6.0 -4.6°
Reaches altitude 10° 16:45:36 10° 112° (ESE) 2,308 5.1 -4.9°
Maximum altitude 16:49:48 27° 56° (NE) 1,455 3.9 -5.4°
Drops below altitude 10° 16:54:01 10° 0° (N) 2,318 5.2 -5.9°
Sets 16:56:37 0° 349° (NNW) 3,248 6.1 -6.2°
